Poplar Bluff, MO

12:00 AM CDT on August 18, 2019 (GMT -0500)
Poplar Bluff Municipal

Weather History for KPOF - June, 2019

Change the Weather History Date:

Wednesday, June 12, 2019

  Actual Average Record
Temperature  
Mean Temperature 65 °F 76 °F  
Max Temperature 72 °F 86 °F 102 °F (1925)
Min Temperature 57 °F 65 °F 49 °F (1980)
Degree Days  
Heating Degree Days 0 0  
Month to date heating degree days 0 0  
Since 1 June heating degree days 0 0  
Since 1 July heating degree days 4043 4074  
Cooling Degree Days 0 11  
Month to date cooling degree days 104 110  
Year to date cooling degree days 318 274  
Since 1 June cooling degree days 104 110  
Growing Degree Days 14 (Base 50)    
Moisture  
Dew Point 59 °F    
Average Humidity 79    
Maximum Humidity 100    
Minimum Humidity 57    
Precipitation  
Precipitation 0.04 in 0.12 in 2.10 in (1925)
Month to date precipitation 1.50 1.61  
Year to date precipitation 35.47 21.84  
Sea Level Pressure  
Sea Level Pressure 29.95 in    
Wind  
Wind Speed 4 mph (West)    
Max Wind Speed 14 mph    
Max Gust Speed 22 mph    
Visibility 10 miles    
Events      
T = Trace of Precipitation, MM = Missing Value Source: NWS Daily Summary

Daily Weather History Graph

Daily Weather History Graph

Search for Another Location

Airport or City:

Astronomy

Jun. 12, 2019 Rise Set
Actual Time 5:41 AM CDT 8:20 PM CDT
Civil Twilight 5:11 AM CDT 8:51 PM CDT
Nautical Twilight 4:33 AM CDT 9:29 PM CDT
Astronomical Twilight 3:50 AM CDT 10:12 PM CDT
Moon 3:36 PM CDT (6/12) 2:47 AM CDT (6/12)
Length of Visible Light 15h 40m
Length of Day
14h 38m
Waxing Gibbous, 77% of the Moon is Illuminated
Jun 12
Waxing Gibbous
Jun 17
Full
Jun 25
Last Quarter
Jul 2
New
Jul 9
First Quarter

Hourly Weather History & Observations

Time (CDT) Temp. Dew Point Humidity Pressure Visibility Wind Dir Wind Speed Gust Speed Precip Events Conditions
12:53 AM 60.1 °F 59.0 °F 96% 30.03 in 10.0 mi Calm Calm - N/A   Clear
1:53 AM 60.1 °F 59.0 °F 96% 30.01 in 10.0 mi Calm Calm - N/A   Clear
3:53 AM 59.0 °F 57.9 °F 96% 29.99 in 10.0 mi NNW 3.5 mph - N/A   Clear
4:53 AM 57.9 °F 57.0 °F 97% 29.99 in 10.0 mi NW 3.5 mph - N/A   Clear
5:53 AM 57.0 °F 55.9 °F 96% 29.99 in 10.0 mi Calm Calm - N/A   Clear
6:53 AM 60.1 °F 57.0 °F 90% 29.97 in 10.0 mi NNW 3.5 mph - N/A   Clear
7:53 AM 64.0 °F 59.0 °F 84% 29.98 in 10.0 mi Calm Calm - N/A   Clear
8:53 AM 69.1 °F 57.0 °F 65% 29.97 in 10.0 mi Calm Calm - N/A   Clear
9:53 AM 71.1 °F 55.9 °F 59% 29.98 in 10.0 mi SW 6.9 mph - N/A   Clear
10:53 AM 66.9 °F 54.0 °F 63% 29.99 in 10.0 mi WSW 9.2 mph 21.9 mph N/A   Overcast
11:53 AM 68.0 °F 55.9 °F 65% 29.95 in 10.0 mi Calm Calm - 0.00 in   Overcast
12:53 PM 69.1 °F 55.0 °F 61% 29.94 in 10.0 mi WNW 4.6 mph - N/A   Overcast
1:53 PM 69.1 °F 57.0 °F 65% 29.94 in 10.0 mi West 10.4 mph - N/A   Overcast
3:53 PM 69.1 °F 57.9 °F 68% 29.90 in 10.0 mi WSW 4.6 mph - 0.00 in   Overcast
4:53 PM 68.0 °F 61.0 °F 78% 29.89 in 10.0 mi NNW 4.6 mph - N/A   Overcast
5:53 PM 68.0 °F 62.1 °F 81% 29.90 in 10.0 mi West 5.8 mph - 0.04 in   Partly Cloudy
6:53 PM 66.9 °F 61.0 °F 81% 29.90 in 10.0 mi West 5.8 mph - N/A   Clear
7:53 PM 66.0 °F 62.1 °F 87% 29.88 in 10.0 mi SSW 4.6 mph - N/A   Partly Cloudy
8:53 PM 64.9 °F 63.0 °F 93% 29.91 in 10.0 mi Calm Calm - 0.00 in   Clear
9:53 PM 63.0 °F 61.0 °F 93% 29.93 in 10.0 mi West 5.8 mph - N/A   Clear
10:53 PM 61.0 °F 61.0 °F 100% 29.94 in 10.0 mi WSW 4.6 mph - N/A   Clear
11:53 PM 60.1 °F 60.1 °F 100% 29.94 in 10.0 mi West 5.8 mph - N/A   Clear